• In Germany
  • List of Countries
  • For 7 days
  • Water Temperature
  • Satellite Maps
  • Weather Map
  • Weather Widgets
  • user-avatar
    Login

    Hourly Weather Tirana

    Today, 29 May, Monday

    Time Temperature Precipitation Wind Pressure Humidity
    00:00 +15°C° 0 mm 4 mps 756 mmHg 74%
    01:00 +16°C° 0 mm 3 mps 756 mmHg 76%
    02:00 +14°C° 0 mm 3 mps 756 mmHg 76%
    03:00 +14°C° 0 mm 3 mps 756 mmHg 76%
    04:00 +14°C° 0 mm 3 mps 756 mmHg 76%
    05:00 +17°C° 0 mm 2 mps 756 mmHg 71%
    06:00 +19°C° 0 mm 2 mps 755 mmHg 66%
    07:00 +21°C° 0 mm 2 mps 755 mmHg 60%
    08:00 +24°C° 0 mm 2 mps 755 mmHg 54%
    09:00 +26°C° 0 mm 1 mps 755 mmHg 47%
    10:00 +28°C° 0 mm 1 mps 755 mmHg 40%
    11:00 +28°C° 0 mm 2 mps 755 mmHg 41%
    12:00 +28°C° 0 mm 3 mps 755 mmHg 41%
    13:00 +28°C° 0 mm 4 mps 755 mmHg 41%
    14:00 +27°C° 0 mm 4 mps 754 mmHg 44%
    15:00 +26°C° 0 mm 3 mps 754 mmHg 47%
    16:00 +26°C° 0 mm 3 mps 754 mmHg 49%
    17:00 +22°C° 0 mm 3 mps 754 mmHg 59%
    18:00 +20°C° 0 mm 2 mps 754 mmHg 68%
    19:00 +18°C° 0 mm 2 mps 753 mmHg 78%
    20:00 +18°C° 0 mm 1 mps 754 mmHg 79%
    21:00 +16°C° 0 mm 1 mps 754 mmHg 81%
    22:00 +16°C° 0 mm 1 mps 754 mmHg 82%
    23:00 +15°C° 0 mm 1 mps 754 mmHg 82%

    Tomorrow, 30 May, Tuesday

    Time Temperature Precipitation Wind Pressure Humidity
    00:00 +15°C° 0 mm 1 mps 754 mmHg 83%
    01:00 +14°C° 0 mm 0 mps 754 mmHg 83%
    02:00 +14°C° 0 mm 0 mps 754 mmHg 84%
    03:00 +14°C° 0 mm 1 mps 754 mmHg 85%
    04:00 +14°C° 0 mm 1 mps 754 mmHg 86%
    05:00 +18°C° 0 mm 1 mps 754 mmHg 77%
    06:00 +18°C° 0 mm 0 mps 754 mmHg 67%
    07:00 +21°C° 0 mm 0 mps 754 mmHg 58%
    08:00 +24°C° 0 mm 1 mps 755 mmHg 53%
    09:00 +26°C° 0 mm 1 mps 755 mmHg 48%
    10:00 +27°C° 0 mm 1 mps 755 mmHg 43%
    11:00 +27°C° 0 mm 2 mps 755 mmHg 42%
    12:00 +28°C° 0 mm 3 mps 755 mmHg 41%
    13:00 +28°C° 0 mm 3 mps 755 mmHg 40%
    14:00 +28°C° 0 mm 3 mps 755 mmHg 43%
    15:00 +27°C° 0 mm 3 mps 754 mmHg 45%
    16:00 +26°C° 0 mm 2 mps 754 mmHg 47%
    17:00 +24°C° 0 mm 2 mps 755 mmHg 57%
    18:00 +21°C° 0 mm 1 mps 755 mmHg 68%
    19:00 +19°C° 0 mm 1 mps 755 mmHg 78%
    20:00 +18°C° 0 mm 1 mps 755 mmHg 79%
    21:00 +16°C° 0 mm 1 mps 756 mmHg 80%
    22:00 +16°C° 0 mm 1 mps 756 mmHg 81%
    23:00 +15°C° 0 mm 1 mps 756 mmHg 81%

    Day after tomorrow, 31 May, Wednesday

    Time Temperature Precipitation Wind Pressure Humidity
    00:00 +15°C° 0 mm 1 mps 756 mmHg 81%
    01:00 +15°C° 0 mm 1 mps 756 mmHg 82%
    02:00 +15°C° 0 mm 1 mps 756 mmHg 82%
    03:00 +14°C° 0 mm 2 mps 756 mmHg 82%
    04:00 +14°C° 0 mm 2 mps 756 mmHg 83%
    05:00 +17°C° 0 mm 2 mps 756 mmHg 73%
    06:00 +21°C° 0 mm 1 mps 756 mmHg 63%
    07:00 +24°C° 0 mm 1 mps 757 mmHg 53%
    08:00 +25°C° 0 mm 2 mps 757 mmHg 49%
    09:00 +26°C° 0 mm 2 mps 757 mmHg 45%
    10:00 +28°C° 0 mm 2 mps 757 mmHg 41%
    11:00 +28°C° 0 mm 2 mps 756 mmHg 40%
    12:00 +29°C° 0 mm 3 mps 756 mmHg 39%
    13:00 +29°C° 0 mm 3 mps 756 mmHg 38%
    14:00 +29°C° 0 mm 3 mps 756 mmHg 41%
    15:00 +28°C° 0 mm 3 mps 756 mmHg 43%
    16:00 +27°C° 0 mm 2 mps 755 mmHg 46%
    17:00 +25°C° 0 mm 2 mps 756 mmHg 57%
    18:00 +22°C° 0 mm 1 mps 756 mmHg 68%
    19:00 +17°C° 0 mm 0 mps 756 mmHg 79%
    20:00 +16°C° 0 mm 0 mps 756 mmHg 80%
    21:00 +16°C° 0 mm 0 mps 756 mmHg 82%
    22:00 +15°C° 0 mm 0 mps 756 mmHg 84%
    23:00 +14°C° 0 mm 0 mps 756 mmHg 84%

    1 June, Thursday

    Time Temperature Precipitation Wind Pressure Humidity
    00:00 +14°C° 0 mm 0 mps 756 mmHg 84%
    01:00 +14°C° 0 mm 0 mps 756 mmHg 84%
    02:00 +14°C° 0 mm 0 mps 756 mmHg 84%
    03:00 +14°C° 0 mm 0 mps 756 mmHg 83%
    04:00 +14°C° 0 mm 1 mps 756 mmHg 83%
    05:00 +18°C° 0 mm 1 mps 756 mmHg 71%
    06:00 +19°C° 0 mm 0 mps 756 mmHg 59%
    07:00 +22°C° 0 mm 0 mps 756 mmHg 48%
    08:00 +26°C° 0 mm 1 mps 756 mmHg 44%
    09:00 +27°C° 0 mm 1 mps 756 mmHg 41%
    10:00 +29°C° 0 mm 1 mps 756 mmHg 38%
    11:00 +29°C° 0 mm 2 mps 756 mmHg 38%
    12:00 +30°C° 0 mm 3 mps 755 mmHg 38%
    13:00 +30°C° 0 mm 4 mps 755 mmHg 38%
    14:00 +30°C° 0 mm 3 mps 755 mmHg 41%
    15:00 +29°C° 0 mm 3 mps 755 mmHg 44%
    16:00 +28°C° 0 mm 3 mps 755 mmHg 47%
    17:00 +25°C° 0 mm 2 mps 755 mmHg 58%
    18:00 +23°C° 0 mm 2 mps 755 mmHg 68%
    19:00 +20°C° 0 mm 1 mps 755 mmHg 79%
    20:00 +19°C° 0 mm 1 mps 755 mmHg 81%
    21:00 +18°C° 0 mm 1 mps 755 mmHg 82%
    22:00 +16°C° 0 mm 0 mps 756 mmHg 84%
    23:00 +15°C° 0 mm 0 mps 756 mmHg 84%

    2 June, Friday

    Time Temperature Precipitation Wind Pressure Humidity
    00:00 +16°C° 0 mm 1 mps 755 mmHg 84%
    01:00 +15°C° 0 mm 1 mps 755 mmHg 84%
    02:00 +15°C° 0 mm 1 mps 755 mmHg 84%
    03:00 +15°C° 0 mm 1 mps 755 mmHg 84%
    04:00 +15°C° 0 mm 1 mps 755 mmHg 84%
    05:00 +19°C° 0 mm 1 mps 755 mmHg 73%
    06:00 +22°C° 0 mm 1 mps 755 mmHg 62%
    07:00 +23°C° 0 mm 0 mps 755 mmHg 51%
    08:00 +27°C° 0 mm 1 mps 755 mmHg 47%
    09:00 +28°C° 0 mm 1 mps 755 mmHg 43%
    10:00 +30°C° 0 mm 2 mps 755 mmHg 39%
    11:00 +30°C° 0 mm 2 mps 755 mmHg 39%
    12:00 +30°C° 0 mm 3 mps 754 mmHg 39%
    13:00 +32°C° 0 mm 4 mps 754 mmHg 39%
    14:00 +30°C° 0 mm 4 mps 754 mmHg 42%
    15:00 +29°C° 0 mm 4 mps 754 mmHg 45%
    16:00 +29°C° 0 mm 3 mps 753 mmHg 48%
    17:00 +26°C° 0 mm 3 mps 754 mmHg 60%
    18:00 +23°C° 0 mm 2 mps 754 mmHg 71%
    19:00 +19°C° 0 mm 2 mps 754 mmHg 82%
    20:00 +20°C° 0 mm 1 mps 754 mmHg 84%
    21:00 +19°C° 0 mm 1 mps 754 mmHg 85%
    22:00 +18°C° 0 mm 1 mps 754 mmHg 87%
    23:00 +18°C° 0 mm 1 mps 754 mmHg 87%

    3 June, Saturday

    Time Temperature Precipitation Wind Pressure Humidity
    00:00 +16°C° 0 mm 1 mps 754 mmHg 87%
    01:00 +16°C° 0 mm 1 mps 754 mmHg 87%
    02:00 +16°C° 0 mm 1 mps 753 mmHg 87%
    03:00 +15°C° 0 mm 1 mps 753 mmHg 87%
    04:00 +15°C° 0 mm 1 mps 753 mmHg 87%
    05:00 +19°C° 0 mm 1 mps 753 mmHg 76%
    06:00 +22°C° 0 mm 1 mps 753 mmHg 66%
    07:00 +23°C° 0 mm 0 mps 753 mmHg 56%
    08:00 +27°C° 0 mm 1 mps 753 mmHg 52%
    09:00 +28°C° 0 mm 2 mps 753 mmHg 47%
    10:00 +30°C° 0 mm 2 mps 753 mmHg 43%
    11:00 +30°C° 0.1 mm 3 mps 753 mmHg 44%
    12:00 +30°C° 0.1 mm 3 mps 753 mmHg 44%
    13:00 +30°C° 0.1 mm 4 mps 752 mmHg 45%
    14:00 +30°C° 0.2 mm 4 mps 752 mmHg 47%
    15:00 +29°C° 0.2 mm 4 mps 752 mmHg 50%
    16:00 +29°C° 0.2 mm 3 mps 752 mmHg 52%
    17:00 +26°C° 0.1 mm 3 mps 752 mmHg 62%
    18:00 +23°C° 0.1 mm 2 mps 752 mmHg 72%
    19:00 +20°C° 0.1 mm 2 mps 753 mmHg 82%
    20:00 +20°C° 0 mm 1 mps 753 mmHg 84%
    21:00 +20°C° 0 mm 1 mps 753 mmHg 86%
    22:00 +19°C° 0 mm 1 mps 753 mmHg 88%
    23:00 +19°C° 0 mm 1 mps 753 mmHg 88%
    Show more